Home   Weather   Sarnia   Past weeks

Flag for Canada Past Weather in Sarnia, Ontario, Canada — Yesterday and Last 2 Weeks

Now
37 °F

Low clouds.


Feels Like: 31 °F
Forecast: 33 / 42 °F
Wind: 9 mph from Southeast

Location: Sarnia Airport

Current Time: Jan 17, 2017 at 10:23:48 am

Latest Report: Jan 17, 2017 at 10:00 am


Visibility: 8 mi

Pressure: 29.81 "Hg

Humidity: 100%

Dew Point: 37 °F

Location of SarniaLocation

Past Weather in Sarnia — Graph

°F

Sarnia Temperature Yesterday

Maximum temperature yesterday: 32 °F (at 1:00 pm)
Minimum temperature yesterday: 19 °F (at 5:00 am)
Average temperature yesterday: 29 °F

High & Low Weather Summary for the Past Weeks

 TemperatureHumidityPressure
High48 °F (Jan 11, 11:21 pm)100% (Jan 2, 8:00 pm)30.81 "Hg (Jan 2, 8:00 pm)
Low7 °F (Jan 6, 5:00 am)52% (Jan 6, 11:00 am)29.39 "Hg (Jan 10, 9:00 pm)
Average26 °F81%30.11 "Hg
* Reported Jan 2 9:00 am — Jan 17 9:23 am, Sarnia, Weather by CustomWeather, © 2017

Note: Actual official high and low records may vary slightly from our data, if they occured in-between our weather recording intervals... More about our weather records

Advertising

Sarnia Weather History for the Previous 24 Hours

Scroll right to see more
 ConditionsComfort  
Time TempWeatherWind HumidityBarometerVisibility
9:23 am
Tue, Jan 17
36 °FLight rain. Fog.8 mph100%29.83 "Hg3 mi
9:00 am36 °FLight rain. Fog.9 mph100%29.84 "Hg4 mi
8:38 am36 °FFog.12 mph100%29.84 "Hg5 mi
8:24 am36 °FLight rain. Fog.13 mph100%29.85 "Hg6 mi
8:04 am36 °FLight rain. Fog.14 mph100%29.85 "Hg4 mi
7:13 am36 °FLight rain. Fog.16 mph93%29.87 "Hg6 mi
7:06 am36 °FLight rain. Fog.16 mph93%29.88 "Hg3 mi
6:02 am34 °FLight rain. Fog.16 mph100%29.91 "Hg3 mi
5:39 am34 °FLight rain. Mostly cloudy.16 mph100%29.94 "Hg9 mi
5:06 am34 °FLight rain. Fog.13 mph100%29.96 "Hg6 mi
4:16 am34 °FLight rain. Overcast.13 mph93%30.01 "Hg8 mi
4:05 am34 °FLight rain. Overcast.9 mph93%30.02 "Hg7 mi
3:00 am32 °FLight rain. Overcast.8 mph93%30.07 "Hg8 mi
2:17 am32 °FLight rain. Mostly cloudy.12 mph93%30.09 "Hg9 mi
2:00 am32 °FLight rain. Overcast.9 mph93%30.09 "Hg9 mi
1:41 am32 °FLight rain. Ice fog.8 mph93%30.11 "Hg6 mi
1:12 am32 °FLight rain. Ice fog.6 mph93%30.13 "Hg5 mi
1:09 am32 °FLight rain. Mostly cloudy.5 mph93%30.14 "Hg6 mi
1:01 am32 °FLight snow. Mostly cloudy.6 mph93%30.14 "Hg6 mi
12:38 am32 °FLight rain. Mostly cloudy.7 mph93%30.16 "Hg6 mi
12:00 am32 °FLight snow. Mostly cloudy.6 mph93%30.15 "Hg6 mi
11:58 pm
Mon, Jan 16
32 °FLight snow. Mostly cloudy.5 mph93%30.16 "Hg6 mi
11:00 pm32 °FLight snow. Mostly cloudy.6 mph93%30.18 "Hg4 mi
10:00 pm32 °FLight snow. Overcast.8 mph93%30.21 "Hg4 mi
9:35 pm32 °FLight snow. Overcast.7 mph93%30.22 "Hg4 mi
9:00 pm32 °FLight rain. Ice fog.6 mph93%30.24 "Hg3 mi
8:16 pm32 °FLight rain. Ice fog.3 mph93%30.25 "Hg3 mi
8:00 pm32 °FLight rain. Ice fog.5 mph100%30.25 "Hg2 mi
7:50 pm32 °FLight rain. Ice fog.3 mph100%30.25 "Hg2 mi
7:00 pm32 °FLight rain. Ice fog.3 mph93%30.26 "Hg4 mi
6:00 pm32 °FLight rain. Ice fog.6 mph93%30.25 "Hg4 mi
5:48 pm32 °FLight rain. Ice fog.5 mph87%30.27 "Hg5 mi
5:23 pm32 °FLight rain. Overcast.5 mph87%30.27 "Hg7 mi
5:00 pm32 °FLight mixture of precip. More clouds than sun.5 mph87%30.28 "Hg7 mi
4:32 pm32 °FOvercast.6 mph87%30.28 "Hg8 mi
4:00 pm32 °FLight rain. Overcast.5 mph87%30.29 "Hg9 mi
3:29 pm32 °FLight rain. Mostly cloudy.3 mph80%30.29 "Hg8 mi
3:21 pm32 °FOvercast.5 mph87%30.29 "Hg9 mi
3:00 pm32 °FLight rain. Mostly cloudy.5 mph80%30.28 "Hg9 mi
2:27 pm32 °FLight rain. Overcast.6 mph87%30.29 "Hg7 mi
2:21 pm32 °FLight rain. Overcast.5 mph87%30.29 "Hg7 mi
2:02 pm32 °FLight rain. Overcast.6 mph87%30.30 "Hg7 mi
1:00 pm32 °FPartly sunny.7 mph80%30.32 "Hg7 mi
12:26 pm30 °FIce fog.8 mph86%30.33 "Hg6 mi
12:00 pm30 °FIce fog.6 mph86%30.35 "Hg5 mi
11:00 am28 °FIce fog.5 mph93%30.38 "Hg5 mi
10:00 am27 °FIce fog.6 mph93%30.39 "Hg4 mi
Weather by CustomWeather, © 2017

See weather overviewHow to use our weather pages